This demonstration page uses our WeatherBlox Daily Observations layout. Learn more.

Left ArrowRight Arrow

Hourly Observations for October 18, 2018

Temp ( °F °C ) Dew Point ( °F °C ) Humidity (%) Winds ( mph kmh ) Pressure ( in mb ) Visibility ( mi km ) Precip ( " mm )
12:54 am 00:54 Clear 48 8.9 40 4.4 74 74 SSE 3 6 30.45 1031 10 16.0934 0 0
1:54 am 01:54 Clear 46 7.8 39 3.9 77 77 Calm 30.45 1031 10 16.0934 0 0
2:54 am 02:54 Clear 46 7.8 40 4.4 79 79 Calm 30.45 1031 10 16.0934 0 0
3:54 am 03:54 Clear 44 6.7 39 3.9 83 83 Calm 30.45 1031 10 16.0934 0 0
4:54 am 04:54 Clear 43 6.1 38 3.3 82 82 SSE 5 7 30.43 1031 10 16.0934 0 0
5:54 am 05:54 Clear 39 3.9 37 2.8 93 93 SSE 6 9 30.45 1031 10 16.0934 0 0
6:54 am 06:54 Clear 43 6.1 38 3.3 82 82 Calm 30.45 1031 10 16.0934 0 0
7:54 am 07:54 Sunny 38 3.3 35 1.7 89 89 SSE 5 7 30.46 1032 10 16.0934 0 0
8:54 am 08:54 Sunny 46 7.8 41 5 83 83 SSE 6 9 30.47 1032 10 16.0934 0 0
9:54 am 09:54 Sunny 55 12.8 44 6.7 67 67 SSW 6 9 30.46 1032 10 16.0934 0 0
10:54 am 10:54 Sunny 62 16.7 43 6.1 50 50 SW 14 22 30.44 1031 10 16.0934 0 0
11:54 am 11:54 Sunny 66 18.9 43 6.1 43 43 SSW 13 20 30.42 1030 10 16.0934 0 0
12:54 pm 12:54 Sunny 69 20.6 40 4.4 35 35 SW 20 31 30.38 1029 10 16.0934 0 0.0254
1:54 pm 13:54 Sunny 70 21.1 40 4.4 34 34 SSW 18 30 30.34 1028 10 16.0934 0 0
2:54 pm 14:54 Sunny 70 21.1 40 4.4 34 34 S 20 31 30.31 1026 10 16.0934 0 0
3:54 pm 15:54 Sunny 70 21.1 40 4.4 34 34 SSW 17 28 30.29 1026 10 16.0934 0 0
4:54 pm 16:54 Sunny 70 21.1 39 3.9 32 32 SW 18 30 30.27 1025 10 16.0934 0 0
5:54 pm 17:54 Sunny 66 18.9 41 5 40 40 S 14 22 30.27 1025 10 16.0934 0 0
6:54 pm 18:54 Mostly Clear 59 15 42 5.6 54 54 S 12 19 30.24 1024 10 16.0934 0 0
7:54 pm 19:54 Mostly Clear 60 15.6 42 5.6 52 52 S 13 20 30.24 1024 10 16.0934 0 0
8:54 pm 20:54 Clear 58 14.4 43 6.1 58 58 S 12 19 30.23 1024 10 16.0934 0 0
9:54 pm 21:54 Clear 58 14.4 43 6.1 58 58 S 13 20 30.21 1023 10 16.0934 0 0
10:54 pm 22:54 Clear 58 14.4 42 5.6 56 56 S 12 19 30.2 1023 10 16.0934 0 0
11:54 pm 23:54 Cloudy 56 13.3 44 6.7 65 65 S 9 15 30.17 1022 10 16.0934 0 0

Powered by AerisWeather